Regional Weather Roundup
Issued by NWS

Home | Current Version | Previous Version | Graphics & Text | Print | Product List | Glossary On
Versions: 1 2 3 4 5 6 7 8 9 10 11 12 13 14 15 16 17 18 19 20 21 22 23 24 25 26 27 28 29 30 31 32 33 34 35 36 37 38 39 40 41 42 43 44 45 46 47 48 49 50
000
ASUS43 KMKX 191900
RWRWI

WISCONSIN REGIONAL WEATHER ROUNDUP
NATIONAL WEATHER SERVICE MILWAUKEE/SULLIVAN WI
200 PM CDT FRI SEP 19 2014

NOTE: "FAIR" INDICATES FEW OR NO CLOUDS BELOW 12,000 FEET WITH NO
SIGNIFICANT WEATHER AND/OR OBSTRUCTIONS TO VISIBILITY.

WIZ001-002-006>008-014>016-023>028-192000-
NORTHWEST WISCONSIN

CITY           SKY/WX    TMP DP  RH WIND       PRES   REMARKS
SUPERIOR ARPT  CLOUDY    65  58  76 S13G18    29.68F
ASHLAND        CLOUDY    67  55  65 SW18G29   29.73S
HAYWARD        CLOUDY    66  55  67 S17G28    29.76F
SIREN          CLOUDY    68  57  67 SW13G20   29.75S
RICE LAKE      PTSUNNY   70  56  60 S18G25    29.79F
LADYSMITH      PTSUNNY   67  56  67 S12G28    29.83S
EAU CLAIRE     NOT AVBL
MENOMONIE      PTCLDY    73  56  56 S22G30    29.79F
NEW RICHMOND   PTSUNNY   73  58  59 S17G32    29.74F
OSCEOLA        CLOUDY    72  59  64 S14G21    29.77F
$$

WIZ003>005-009-010-017-018-192000-
NORTH CENTRAL WISCONSIN

CITY           SKY/WX    TMP DP  RH WIND       PRES   REMARKS
WOODRUFF       CLOUDY    63  51  64 S20G32    29.77F
RHINELANDER    PTSUNNY   63  50  62 S20G33    29.83F
EAGLE RIVER    CLOUDY    65  48  53 S16G28    29.83F
LAND O LAKES   CLOUDY    65  49  55 S15G23    29.81F
PHILLIPS       PTSUNNY   65  53  65 S20G31    29.81F
TOMAHAWK       PTSUNNY   65  52  61 S10G18    29.86F
MEDFORD        MOSUNNY   65  53  65 S20G28    29.87F
MERRILL        PTSUNNY   69  52  54 S18G26    29.89F
$$

WIZ029-030-035-036-043>047-192000-
CENTRAL WISCONSIN

CITY           SKY/WX    TMP DP  RH WIND       PRES   REMARKS
WAUSAU         MOSUNNY   70  50  49 S21G30    29.88F
MOSINEE        SUNNY     70  52  52 S23G29    29.92F
MARSHFIELD     MOSUNNY   70  54  56 S17G29    29.89F
STEVENS POINT  SUNNY     69  50  50 S17G31    29.93F
WAUPACA        SUNNY     73  51  45 S21G26    29.96F
WAUTOMA        NOT AVBL
WISC RAPIDS    SUNNY     71  53  52 SW16G24   29.93F
CAMP DOUGLAS   NOT AVBL
$$

WIZ011>013-019>022-031-037>040-048>050-192000-
NORTHEAST WISCONSIN

CITY           SKY/WX    TMP DP  RH WIND       PRES   REMARKS
ANTIGO         PTSUNNY   66  54  64 S18       29.92F
STURGEON BAY   PTSUNNY   63  55  77 S23G31    29.98F
GREEN BAY      PTSUNNY   72  52  49 S14G26    29.96F
MANITOWOC      NOT AVBL
APPLETON       PTSUNNY   70  48  46 S25G31    29.97F
CLINTONVILLE   MOSUNNY   72  50  46 S18G25    29.94F
OSHKOSH        SUNNY     73  52  47 S24G32    29.96F
$$

WIZ032>034-041-042-053>061-192000-
SOUTHWEST WISCONSIN

CITY           SKY/WX    TMP DP  RH WIND       PRES   REMARKS
LA CROSSE      SUNNY     75  56  51 S23G30    29.87F
SPARTA         MOSUNNY   73  51  47 S14G28    29.93F
VIROQUA        FAIR      71  55  56 S20G26    29.95F
BOSCOBEL       SUNNY     76  54  46 S15G25    29.96F
PRAIRIE DU CHI SUNNY     74  53  47 S9G20     29.95F
PLATTEVILLE    FAIR      73  54  51 S21G26    30.01F
$$

WIZ056-057-062-063-064-067-068-192000-
SOUTH CENTRAL WISCONSIN

CITY           SKY/WX    TMP DP  RH WIND       PRES   REMARKS
BARABOO/DELLS  SUNNY     73  51  45 S14G26    29.97F
LONE ROCK      NOT AVBL
WATERTOWN      SUNNY     72  51  47 S17G23    30.01F
MADISON        MOSUNNY   73  50  44 S17G29    30.00F
MIDDLETON      FAIR      74  50  43 S14G21    30.01F
MONROE         SUNNY     70  52  52 S22G29    30.02F
JANESVILLE     SUNNY     73  46  38 S18G25    30.02F
$$

WIZ051-052-058>065-066-070>072-192000-
SOUTHEAST WISCONSIN

CITY           SKY/WX    TMP DP  RH WIND       PRES   REMARKS
MILWAUKEE      MOSUNNY   73  50  44 S14       30.05F
WAUKESHA       SUNNY     70  48  46 S13       30.06F
MILWAUKEE/TIMM SUNNY     72  46  40 S14G25    30.06F
RACINE         SUNNY     69  54  58 S14G23    30.08F
BURLINGTON     SUNNY     72  49  44 S13G20    30.06F
KENOSHA        SUNNY     73  51  46 SW14      30.07F
FOND DU LAC    SUNNY     72  51  47 S21G26    29.98F
SHEBOYGAN      MOSUNNY   70  56  61 S13G23    30.01F
WEST BEND      SUNNY     72  46  40 S14G21    30.03F
JUNEAU         SUNNY     71  50  47 S21G26    30.02F
$$

LSZ147-162-192000-
LAKE SUPERIOR

STATION/POSITION TIME  TEMP    WIND        PRES    WAVE
                       AIR SEA DIR/SP/G            HT/PER
                 (UTC) (F)     (DEG/KT/KT) (MB)    (FT/S)
W MID LAKE BUOY  1750   54 48  170/ 16/ 19 1005.0F   2/ 4
DEVILS ISLAND    1800   60     230/ 13/ 16 1006.9R
PORT WING        1800   66     220/ 12/ 23 1006.8R
SAXON HARBOR     1840   71     200/  9/ 23 1006.4R
$$

LMZ867-665-643>646-192000-
LAKE MICHIGAN

STATION/POSITION TIME  TEMP    WIND        PRES    WAVE
                       AIR SEA DIR/SP/G            HT/PER
                 (UTC) (F)     (DEG/KT/KT) (MB)    (FT/S)
N MID LAKE BUOY  1750   58 58  200/ 23/ 27 1017.3F   5/ 6
NORTHPORT PIER   1823   60     160/ 12/ 28 1015.6F
SISTER BAY       1712   65     200/ 22/ 27   N/A
KEWAUNEE LAKESHO 1800   57     170/ 16/ 19 1016.7F
SHEBOYGAN LAKESH 1800   57 52  180/ 17/ 18 1018.4F
PORT WASHINGTON  1840   64     190/  7/ 11 1017.9F
ATWATER BUOY     1800   61     160/ 16/ 19 1019.4F
MILWAUKEE LAKESH 1800   68     200/ 19/ 23   N/A
S MID LAKE BUOY  1750   63 65  180/ 17/ 21 1020.1F   4/ 5
KENOSHA   LAKESH 1800   62     160/ 15/ 17 1018.6F
$$

TC  - TEMPERATURE IN CELSIUS
VSB - VISIBILITY IN STATUTE MILES
WCI - WIND CHILL INDEX
HX  - HEAT INDEX



USA.gov is the U.S. government's official web portal to all federal, state and local government web resources and services.